Satellite: NOAA-17
Catalog number: 27453
Epoch time:      11026.75851516
Element set:    0163
Inclination:      098.4000 deg
RA of node:       072.8322 deg
Eccentricity:    0.0011474
Arg of perigee:   199.1501 deg
Mean anomaly:     160.9255 deg
Mean motion:   14.24229975 rev/day
Decay rate:      -1.08e-06 rev/day^2
Epoch rev:           44652
Checksum:              289

Satellite: NOAA-18
Catalog number: 28654
Epoch time:      11026.82009954
Element set:    0649
Inclination:      098.9793 deg
RA of node:       337.7527 deg
Eccentricity:    0.0014708
Arg of perigee:   140.2706 deg
Mean anomaly:     219.9504 deg
Mean motion:   14.11430808 rev/day
Decay rate:        3.2e-07 rev/day^2
Epoch rev:           29298
Checksum:              325

Satellite: NOAA-19
Catalog number: 33591
Epoch time:      11026.78612991
Element set:    0843
Inclination:      098.8137 deg
RA of node:       329.4204 deg
Eccentricity:    0.0014664
Arg of perigee:   019.4269 deg
Mean anomaly:     340.7440 deg
Mean motion:   14.11123326 rev/day
Decay rate:      -1.15e-06 rev/day^2
Epoch rev:           10144
Checksum:              285

/EX
SB KEPS @ AMSAT  $ORB11027.M
Orbital Elements  11027.MISC

HR AMSAT ORBITAL ELEMENTS FOR MANNED AND MISCELLANEOUS SATELLITES
FROM WA5QGD FORT WORTH,TX January 27, 2011
Send Subscribe/unsubscribe to KEPS at http://www.amsat.org/mailman/listinfo/kep
BID: ORB11027.M
TO ALL RADIO AMATEURS BT

Satellite: HUBBLE
Catalog number: 20580
Epoch time:      11026.64937645
Element set:     706
Inclination:      028.4692 deg
RA of node:       220.8594 deg
Eccentricity:    0.0003338
Arg of perigee:   058.8207 deg
Mean anomaly:     301.2683 deg
Mean motion:   15.01146526 rev/day
Decay rate:       4.02e-06 rev/day^2
Epoch rev:           93836
Checksum:              288

Satellite: ISS
Catalog number: 25544
Epoch time:      11027.97546650
Element set:     720
Inclination:      051.6442 deg
RA of node:       159.8098 deg
Eccentricity:    0.0003759
Arg of perigee:   236.9418 deg
Mean anomaly:     226.5219 deg
Mean motion:   15.72182954 rev/day
Decay rate:     1.2032e-04 rev/day^2
Epoch rev:           69883
Checksum:              321

Satellite: CO-58
Catalog number: 28895
Epoch time:      11027.43866102
Element set:     786
Inclination:      097.9864 deg
RA of node:       269.1023 deg
Eccentricity:    0.0017069
Arg of perigee:   304.5368 deg
Mean anomaly:     055.4254 deg
Mean motion:   14.59999588 rev/day
Decay rate:       2.33e-06 rev/day^2
Epoch rev:           27970
Checksum:              360

Satellite: FALCON
Catalog number: 30776
Epoch time:      11027.67641747
Element set:       9
Inclination:      035.4323 deg
RA of node:       120.9610 deg
Eccentricity:    0.0001794
Arg of perigee:   330.5494 deg
Mean anomaly:     029.5121 deg
Mean motion:   15.04081060 rev/day
Decay rate:       6.27e-06 rev/day^2
Epoch rev:           21387
Checksum:              263

Satellite: MAST
Catalog number: 31126
Epoch time:      11027.62141232
Element set:      70
Inclination:      097.9108 deg
RA of node:       062.6908 deg
Eccentricity:    0.0093593
Arg of perigee:   248.1113 deg
Mean anomaly:     111.0112 deg
Mean motion:   14.53667533 rev/day
Decay rate:        9.8e-07 rev/day^2
Epoch rev:           20066
Checksum:              257

Satellite: CAPE1
Catalog number: 31130
Epoch time:      11026.92393796
Element set:    0091
Inclination:      097.9126 deg
RA of node:       059.0209 deg
Eccentricity:    0.0101564
Arg of perigee:   259.9120 deg
Mean anomaly:     099.0593 deg
Mean motion:   14.52282285 rev/day
Decay rate:       -8.0e-07 rev/day^2
Epoch rev:           20013
Checksum:              280

Satellite: COMPASS
Catalog number: 32787
Epoch time:      11026.92240295
Element set:     893
Inclination:      097.8661 deg
RA of node:       093.2824 deg
Eccentricity:    0.0014651
Arg of perigee:   278.3236 deg
Mean anomaly:     081.6311 deg
Mean motion:   14.82118071 rev/day
Decay rate:       -3.5e-07 rev/day^2
Epoch rev:           14863
Checksum:              297

Satellite: AAUSAT2
Catalog number: 32788
Epoch time:      11026.70015350
Element set:    0883
Inclination:      097.8650 deg
RA of node:       093.2445 deg
Eccentricity:    0.0014199
Arg of perigee:   278.5027 deg
Mean anomaly:     081.4525 deg
Mean motion:   14.82282286 rev/day
Decay rate:       4.50e-06 rev/day^2
Epoch rev:           14861
Checksum:              303

Satellite: DO-64
Catalog number: 32789
Epoch time:      11026.94761771
Element set:    0901
Inclination:      097.8750 deg
RA of node:       094.2534 deg
Eccentricity:    0.0014375
Arg of perigee:   275.7937 deg
Mean anomaly:     084.1639 deg
Mean motion:   14.82561842 rev/day
Decay rate:       7.57e-06 rev/day^2
Epoch rev:           14865
Checksum:              349

Satellite: CO-66
Catalog number: 32791
Epoch time:      11027.18232427
Element set:     883
Inclination:      097.8669 deg
RA of node:       093.5166 deg
Eccentricity:    0.0015013
Arg of perigee:   275.8098 deg
Mean anomaly:     084.1373 deg
Mean motion:   14.81863120 rev/day
Decay rate:      -1.40e-06 rev/day^2
Epoch rev:           14862
Checksum:              314

